This is the latest recevied weather packets stored in our database for station/object CA2RRL-10. If no packets are shown the sender has not sent any weather packets the latest 10 day(s).
| Time | Temp. | Humidity | Pressure | Rain* | Wind** | Luminosity | Snow |
|---|---|---|---|---|---|---|---|
| 1777987127 | 12.78° C | 39% | 1029.2 hPa | - | - | - | - |
| 1777986227 | 12.22° C | 39% | 1029.3 hPa | - | - | - | - |
| 1777985327 | 12.22° C | 40% | 1029.5 hPa | - | - | - | - |
| 1777984427 | 11.67° C | 41% | 1029.5 hPa | - | - | - | - |
| 1777983527 | 11.11° C | 41% | 1029.5 hPa | - | - | - | - |
| 1777982627 | 11.11° C | 41% | 1029.5 hPa | - | - | - | - |
| 1777981727 | 11.11° C | 41% | 1029.3 hPa | - | - | - | - |
| 1777980827 | 10.56° C | 41% | 1029.4 hPa | - | - | - | - |
| 1777979927 | 10.56° C | 40% | 1029.5 hPa | - | - | - | - |
| 1777979027 | 10.56° C | 40% | 1029.4 hPa | - | - | - | - |
| 1777978126 | 10.56° C | 40% | 1029.4 hPa | - | - | - | - |
| 1777977226 | 10.56° C | 40% | 1029.1 hPa | - | - | - | - |
| 1777976326 | 10.56° C | 39% | 1029 hPa | - | - | - | - |
| 1777975426 | 10.56° C | 39% | 1028.7 hPa | - | - | - | - |
| 1777974525 | 10.56° C | 39% | 1028.5 hPa | - | - | - | - |
| 1777973625 | 10.56° C | 40% | 1028.5 hPa | - | - | - | - |
| 1777972725 | 10.56° C | 40% | 1028.2 hPa | - | - | - | - |
| 1777971825 | 10.56° C | 40% | 1028.2 hPa | - | - | - | - |
| 1777970925 | 10.56° C | 39% | 1027.8 hPa | - | - | - | - |
| 1777970025 | 10.56° C | 39% | 1027.9 hPa | - | - | - | - |
| 1777969125 | 11.11° C | 39% | 1027.9 hPa | - | - | - | - |
| 1777968225 | 11.11° C | 39% | 1027.9 hPa | - | - | - | - |
| 1777967325 | 11.11° C | 38% | 1027.9 hPa | - | - | - | - |
| 1777966425 | 11.67° C | 38% | 1027.9 hPa | - | - | - | - |
| 1777965525 | 11.67° C | 37% | 1028.1 hPa | - | - | - | - |
* Rain since midnight (hover to see other rain measurements)
** Current wind speed in m/s (hover to see current wind gust speed)